EW3446 Weather Reports


Display with metric or nautical units.
time (UTC)temp
F
wind
direction
speed
MPH
gust
MPH
rain 1hr
in
rain 24hr
in
rain mn
in
humidity
%
barometer
mb
20200406060105 33 246 2.0 7.0 0.00 0.00 0.00 92 1012.4
20200406055605 33 239 4.0 8.0 0.00 0.00 0.00 92 1012.4
20200406055104 33 230 1.0 7.0 0.00 0.00 0.00 92 1012.5
20200406054605 33 248 2.0 8.0 0.00 0.00 0.00 92 1012.6
20200406054105 33 241 3.0 8.0 0.00 0.00 0.00 92 1012.7
20200406053604 33 254 4.0 9.0 0.00 0.00 0.00 92 1012.8
20200406053104 33 246 1.0 3.0 0.00 0.00 0.00 92 1012.9
20200406052605 33 244 4.0 8.0 0.00 0.00 0.00 92 1013.0
20200406052105 33 234 3.0 9.0 0.00 0.00 0.00 92 1013.2
20200406051605 33 249 3.0 9.0 0.00 0.00 0.00 92 1013.2
20200406051105 33 280 3.0 8.0 0.00 0.00 0.00 92 1013.2
20200406050604 33 248 3.0 8.0 0.00 0.00 0.00 92 1013.2
20200406050104 33 243 4.0 12.0 0.00 0.00 0.00 92 1013.2
20200406045604 33 231 2.0 8.0 0.00 0.00 0.00 91 1013.3
20200406045105 33 235 4.0 13.0 0.00 0.00 0.00 91 1013.3
20200406044605 33 248 5.0 8.0 0.00 0.00 0.00 91 1013.3
20200406044105 33 280 5.0 13.0 0.00 0.00 0.00 91 1013.3
20200406043605 32 220 3.0 9.0 0.00 0.00 0.00 91 1013.4
20200406043104 32 200 4.0 8.0 0.00 0.00 0.00 91 1013.5
20200406042604 32 242 7.0 12.0 0.00 0.00 0.00 91 1013.5
20200406042104 32 230 4.0 12.0 0.00 0.00 0.00 91 1013.6
20200406041604 32 231 3.0 8.0 0.00 0.00 0.00 91 1013.6
20200406041105 32 264 3.0 7.0 0.00 0.00 0.00 91 1013.6
20200406040605 32 198 3.0 8.0 0.00 0.00 0.00 90 1013.6
20200406040104 32 268 5.0 9.0 0.00 0.00 0.00 90 1013.6
20200406035605 32 209 2.0 5.0 0.00 0.00 0.00 90 1013.6
20200406035104 32 190 3.0 8.0 0.00 0.00 0.00 90 1013.7
20200406034605 32 233 4.0 8.0 0.00 0.00 0.00 90 1013.7
20200406034105 32 218 3.0 7.0 0.00 0.00 0.00 90 1013.8
20200406033605 32 242 3.0 9.0 0.00 0.00 0.00 90 1013.8
20200406033105 32 198 3.0 8.0 0.00 0.00 0.00 89 1013.9
20200406032604 32 229 4.0 12.0 0.00 0.00 0.00 89 1013.9
20200406032104 32 251 5.0 9.0 0.00 0.00 0.00 89 1013.9
20200406031604 32 220 3.0 7.0 0.00 0.00 0.00 89 1014.0
20200406031106 32 207 1.0 5.0 0.00 0.00 0.00 89 1014.0
20200406030604 32 217 2.0 8.0 0.00 0.00 0.00 89 1014.1
20200406030104 32 230 2.0 7.0 0.00 0.00 0.00 89 1014.2
20200406025604 32 206 3.0 7.0 0.00 0.00 0.00 89 1014.3
20200406025105 32 195 4.0 9.0 0.00 0.00 0.00 89 1014.3
20200406024605 32 142 2.0 7.0 0.00 0.00 0.00 88 1014.2
20200406024104 32 202 2.0 5.0 0.00 0.00 0.00 88 1014.3
20200406023605 32 217 4.0 8.0 0.00 0.00 0.00 88 1014.3
20200406023104 32 240 2.0 8.0 0.00 0.00 0.00 88 1014.3
20200406022604 32 190 3.0 7.0 0.00 0.00 0.00 88 1014.4
20200406022104 32 181 2.0 8.0 0.00 0.00 0.00 89 1014.5
20200406021605 32 174 2.0 8.0 0.00 0.00 0.00 89 1014.5
20200406021105 32 205 1.0 7.0 0.00 0.00 0.00 89 1014.5
20200406020604 32 215 3.0 5.0 0.00 0.00 0.00 89 1014.7
20200406020105 32 192 0.0 8.0 0.00 0.00 0.00 88 1014.7
20200406015604 32 207 1.0 5.0 0.00 0.00 0.00 88 1014.7
20200406015104 32 210 3.0 8.0 0.00 0.00 0.00 88 1014.6
20200406014604 32 205 2.0 7.0 0.00 0.00 0.00 88 1014.7
20200406014104 32 229 2.0 5.0 0.00 0.00 0.00 88 1014.8
20200406013604 32 249 3.0 8.0 0.00 0.00 0.00 88 1014.8
20200406013104 32 251 3.0 9.0 0.00 0.00 0.00 88 1014.8
20200406012604 32 216 2.0 5.0 0.00 0.00 0.00 88 1014.9
20200406012105 32 213 5.0 7.0 0.00 0.00 0.00 88 1014.9
20200406011604 32 190 2.0 8.0 0.00 0.00 0.00 88 1015.0
20200406011104 32 207 2.0 7.0 0.00 0.00 0.00 88 1015.0
20200406010604 32 247 1.0 5.0 0.00 0.00 0.00 88 1015.2
20200406010104 32 257 2.0 8.0 0.00 0.00 0.00 88 1015.2
20200406005604 32 244 2.0 5.0 0.00 0.00 0.00 88 1015.3
20200406005104 32 198 2.0 5.0 0.00 0.00 0.00 88 1015.3
20200406004605 32 205 3.0 7.0 0.00 0.00 0.00 88 1015.3
20200406004105 32 249 3.0 13.0 0.00 0.00 0.00 87 1015.3
20200406003605 32 214 2.0 8.0 0.00 0.00 0.00 87 1015.3
20200406003105 32 237 2.0 5.0 0.00 0.00 0.00 87 1015.3
20200406002605 32 289 2.0 7.0 0.00 0.00 0.00 87 1015.3
20200406002105 32 171 5.0 8.0 0.00 0.00 0.00 87 1015.4
20200406001604 32 197 3.0 8.0 0.00 0.00 0.00 87 1015.4
20200406001105 32 163 3.0 7.0 0.00 0.00 0.00 87 1015.3
20200406000605 32 163 5.0 7.0 0.00 0.00 0.00 87 1015.3
20200406000104 32 167 3.0 8.0 0.00 0.00 0.00 87 1015.3
20200405235604 32 165 3.0 5.0 0.00 0.00 0.00 87 1015.4
20200405235104 32 163 2.0 7.0 0.00 0.00 0.00 86 1015.3
20200405234605 32 174 2.0 8.0 0.00 0.00 0.00 86 1015.3
20200405234104 32 163 3.0 7.0 0.00 0.00 0.00 86 1015.1
20200405233604 32 164 3.0 8.0 0.00 0.00 0.00 86 1015.1
20200405233104 32 163 3.0 7.0 0.00 0.00 0.00 86 1015.1
20200405232605 32 163 2.0 5.0 0.00 0.00 0.00 85 1015.1
20200405232104 32 163 3.0 9.0 0.00 0.00 0.00 85 1015.1
20200405231605 32 176 3.0 8.0 0.00 0.00 0.00 85 1015.1
20200405231105 32 169 3.0 5.0 0.00 0.00 0.00 85 1015.1
20200405230604 33 164 5.0 7.0 0.00 0.00 0.00 84 1015.0
20200405230105 33 164 2.0 7.0 0.00 0.00 0.00 84 1015.0
20200405225605 33 167 4.0 8.0 0.00 0.00 0.00 84 1014.9
20200405225104 33 165 3.0 5.0 0.00 0.00 0.00 84 1014.9
20200405224605 33 170 1.0 7.0 0.00 0.00 0.00 83 1014.9
20200405224104 33 168 2.0 7.0 0.00 0.00 0.00 83 1014.9
20200405223604 33 163 2.0 9.0 0.00 0.00 0.00 83 1014.9
20200405223104 33 163 3.0 8.0 0.00 0.00 0.00 83 1014.8
20200405222604 33 184 4.0 8.0 0.00 0.00 0.00 82 1014.7
20200405222104 33 163 3.0 7.0 0.00 0.00 0.00 83 1014.7
20200405221604 33 163 7.0 9.0 0.00 0.00 0.00 82 1014.7
20200405221105 34 163 9.0 12.0 0.00 0.00 0.00 82 1014.8
20200405220604 34 163 3.0 9.0 0.00 0.00 0.00 82 1014.9
20200405220105 34 163 9.0 15.0 0.00 0.00 0.00 81 1014.9
20200405215604 34 163 5.0 9.0 0.00 0.00 0.00 81 1014.9
20200405215104 34 163 3.0 8.0 0.00 0.00 0.00 81 1015.0
20200405214604 34 163 5.0 13.0 0.00 0.00 0.00 81 1015.0
20200405214105 34 163 9.0 13.0 0.00 0.00 0.00 81 1014.8
20200405213605 34 163 7.0 12.0 0.00 0.00 0.00 80 1014.8
20200405213105 34 163 9.0 16.0 0.00 0.00 0.00 80 1014.7
20200405212604 35 163 6.0 9.0 0.00 0.00 0.00 80 1014.6
20200405212105 35 163 8.0 12.0 0.00 0.00 0.00 79 1014.7
20200405211604 35 162 8.0 13.0 0.00 0.00 0.00 78 1014.6
20200405211106 35 173 6.0 9.0 0.00 0.00 0.00 78 1014.7
20200405210608 35 162 12.0 15.0 0.00 0.00 0.00 77 1014.6
20200405210105 36 163 13.0 20.0 0.00 0.00 0.00 76 1014.5
20200405205604 36 163 8.0 13.0 0.00 0.00 0.00 76 1014.6
20200405205105 36 163 9.0 15.0 0.00 0.00 0.00 75 1014.5
20200405204605 37 163 13.0 17.0 0.00 0.00 0.00 75 1014.5
20200405204104 37 163 6.0 15.0 0.00 0.00 0.00 76 1014.5
20200405203604 37 163 12.0 16.0 0.00 0.00 0.00 76 1014.5
20200405203105 37 163 10.0 13.0 0.00 0.00 0.00 76 1014.5
20200405202605 37 164 13.0 17.0 0.00 0.00 0.00 75 1014.5
20200405202105 37 162 10.0 16.0 0.00 0.00 0.00 75 1014.4
20200405201604 37 164 8.0 12.0 0.00 0.00 0.00 76 1014.5
20200405201105 37 164 10.0 17.0 0.00 0.00 0.00 76 1014.4
20200405200604 37 163 12.0 13.0 0.00 0.00 0.00 76 1014.3
20200405200104 37 171 12.0 15.0 0.00 0.00 0.00 76 1014.3
20200405195604 37 165 10.0 15.0 0.00 0.00 0.00 76 1014.2
20200405195105 36 161 11.0 16.0 0.00 0.00 0.00 76 1014.3
20200405194604 37 161 17.0 16.0 0.00 0.00 0.00 76 1014.3
20200405194104 37 159 14.0 16.0 0.00 0.00 0.00 74 1014.4
20200405193604 37 150 16.0 21.0 0.00 0.00 0.00 75 1014.3
20200405193105 37 158 18.0 17.0 0.00 0.00 0.00 74 1014.3
20200405192604 38 162 6.0 15.0 0.00 0.00 0.00 75 1014.3
20200405192104 38 167 9.0 16.0 0.00 0.00 0.00 74 1014.3
20200405191604 38 175 9.0 15.0 0.00 0.00 0.00 75 1014.4
20200405191104 37 167 10.0 16.0 0.00 0.00 0.00 74 1014.4
20200405190604 38 148 10.0 15.0 0.00 0.00 0.00 74 1014.5
20200405190104 38 163 6.0 17.0 0.00 0.00 0.00 74 1014.5
20200405185604 38 165 10.0 16.0 0.00 0.00 0.00 74 1014.6
20200405185105 38 166 9.0 12.0 0.00 0.00 0.00 75 1014.6
20200405184604 37 175 14.0 20.0 0.00 0.00 0.00 74 1014.6
20200405184105 38 166 13.0 17.0 0.00 0.00 0.00 74 1014.6
20200405183604 38 162 10.0 20.0 0.00 0.00 0.00 74 1014.7
20200405183105 38 153 15.0 16.0 0.00 0.00 0.00 74 1014.7
20200405182605 38 150 11.0 20.0 0.00 0.00 0.00 74 1014.8
20200405182104 37 160 11.0 16.0 0.00 0.00 0.00 74 1014.8
20200405181605 38 146 18.0 20.0 0.00 0.00 0.00 73 1014.9
20200405181105 38 184 9.0 15.0 0.00 0.00 0.00 74 1014.9
20200405180605 38 187 9.0 15.0 0.00 0.00 0.00 73 1014.9
20200405180105 38 196 10.0 16.0 0.00 0.00 0.00 73 1015.0
20200405175604 38 171 14.0 24.0 0.00 0.00 0.00 73 1015.0
20200405175104 38 172 10.0 17.0 0.00 0.00 0.00 73 1015.0
20200405174604 38 181 8.0 12.0 0.00 0.00 0.00 73 1015.1
20200405174104 38 175 10.0 17.0 0.00 0.00 0.00 72 1015.1
20200405173605 38 177 9.0 16.0 0.00 0.00 0.00 73 1015.2
20200405173104 38 151 9.0 12.0 0.00 0.00 0.00 71 1015.3
20200405172604 38 174 6.0 13.0 0.00 0.00 0.00 73 1015.4
20200405172105 38 177 12.0 17.0 0.00 0.00 0.00 71 1015.5
20200405171604 39 200 10.0 13.0 0.00 0.00 0.00 72 1015.5
20200405171104 39 176 8.0 16.0 0.00 0.00 0.00 72 1015.5
20200405170604 39 152 9.0 13.0 0.00 0.00 0.00 71 1015.5
20200405170105 39 160 9.0 13.0 0.00 0.00 0.00 72 1015.6
20200405165604 39 180 9.0 12.0 0.00 0.00 0.00 70 1015.6
20200405165104 39 170 11.0 17.0 0.00 0.00 0.00 70 1015.7
20200405164605 40 220 7.0 13.0 0.00 0.00 0.00 68 1015.6
20200405164106 41 199 9.0 12.0 0.00 0.00 0.00 68 1015.7
20200405163606 41 193 6.0 12.0 0.00 0.00 0.00 67 1015.6
20200405163111 41 260 2.0 8.0 0.00 0.00 0.00 67 1015.6
20200405162612 41 227 7.0 12.0 0.00 0.00 0.00 67 1015.7
20200405162113 41 180 6.0 8.0 0.00 0.00 0.00 67 1015.7
20200405161608 41 174 5.0 9.0 0.00 0.00 0.00 68 1015.7
20200405161104 40 176 5.0 8.0 0.00 0.00 0.00 69 1015.8
20200405160605 40 221 6.0 9.0 0.00 0.00 0.00 69 1015.8
20200405160104 40 187 5.0 8.0 0.00 0.00 0.00 69 1015.9
20200405155604 40 248 4.0 8.0 0.00 0.00 0.00 69 1015.9
20200405155104 40 177 2.0 8.0 0.00 0.00 0.00 69 1016.0
20200405154604 39 172 5.0 8.0 0.00 0.00 0.00 69 1016.0
20200405154104 39 169 6.0 8.0 0.00 0.00 0.00 70 1016.1
20200405153605 39 195 3.0 7.0 0.00 0.00 0.00 70 1016.2
20200405153105 39 170 3.0 8.0 0.00 0.00 0.00 70 1016.2
20200405152604 39 218 3.0 7.0 0.00 0.00 0.00 70 1016.3
20200405152104 39 219 7.0 9.0 0.00 0.00 0.00 70 1016.4
20200405151604 39 191 4.0 8.0 0.00 0.00 0.00 70 1016.4
20200405151104 39 203 5.0 7.0 0.00 0.00 0.00 71 1016.5
20200405150605 39 201 2.0 8.0 0.00 0.00 0.00 69 1016.5
20200405150105 39 201 3.0 9.0 0.00 0.00 0.00 70 1016.6
20200405145606 39 245 5.0 9.0 0.00 0.00 0.00 68 1016.7
20200405145105 39 247 4.0 8.0 0.00 0.00 0.00 67 1016.7
20200405144604 39 198 3.0 5.0 0.00 0.00 0.00 68 1016.7
20200405144104 39 200 2.0 7.0 0.00 0.00 0.00 67 1016.8
20200405143605 39 245 1.0 5.0 0.00 0.00 0.00 67 1016.9
20200405143107 39 238 1.0 3.0 0.00 0.00 0.00 69 1016.9